Location: Montclair
(37.8322°N, 122.2092°W)
Time: 16:00:46
(UTC+00:00)

ARGOS - Pass Details

Date: 08 September 2024
Orbit: 818 x 834 km, 98.4° (Epoch: 07 October)

Event Time Altitude Azimuth Distance (km) Brightness Sun altitude
Rises 12:50:54 0° 14° (NNE) 3,355 6.8 -11.3°
Reaches altitude 10° 12:53:16 10° 15° (NNE) 2,419 6.0 -10.9°
Maximum altitude 12:58:37 81° 102° (ESE) 834 3.3 -9.9°
Drops below altitude 10° 13:03:58 10° 191° (S) 2,407 5.3 -8.9°
Sets 13:06:18 0° 192° (SSW) 3,337 6.0 -8.4°
